DW7775 Weather Reports


time (UTC)temp
F
wind
direction
speed
knots
gust
knots
rain 1hr
in
rain 24hr
in
rain mn
in
humidity
%
barometer
mb
20260906124019 67 339 0.0 1.7 0.00 0.00 0.00 99 1019.8
20260906123019 66 330 0.0 0.9 0.00 0.00 0.00 99 1019.6
20260906122019 66 60 0.0 0.9 0.00 0.00 0.00 99 1019.5
20260906121019 66 346 0.0 0.9 0.00 0.00 0.00 98 1019.6
20260906120017 65 351 0.0 0.9 0.00 0.00 0.00 98 1019.3
20260906115017 65 14 0.0 0.9 0.00 0.00 0.00 98 1019.1
20260906114020 65 16 0.0 0.9 0.00 0.00 0.00 98 1019.0
20260906113020 64 20 0.0 0.9 0.00 0.00 0.00 98 1018.9
20260906112040 64 78 0.0 1.7 0.00 0.00 0.00 98 1018.9
20260906111017 65 54 0.0 0.9 0.00 0.00 0.00 98 1018.9
20260906110017 65 52 0.0 1.7 0.00 0.00 0.00 98 1018.7
20260906105017 65 25 0.0 0.9 0.00 0.00 0.00 98 1018.7
20260906104018 65 47 0.0 0.9 0.00 0.00 0.00 98 1018.7
20260906103038 65 41 0.0 0.9 0.00 0.00 0.00 98 1018.6
20260906102018 65 38 0.0 0.9 0.00 0.00 0.00 98 1018.5
20260906101015 65 60 0.0 0.9 0.00 0.00 0.00 98 1018.4
20260906100019 66 50 0.0 0.9 0.00 0.00 0.00 98 1018.3
20260906095018 66 31 0.0 2.6 0.00 0.00 0.00 98 1018.3
20260906094019 66 25 0.9 2.6 0.00 0.00 0.00 98 1018.3
20260906093039 65 34 0.9 1.7 0.00 0.00 0.00 98 1018.3
20260906092019 65 40 0.9 4.3 0.00 0.00 0.00 98 1018.1
20260906091019 65 41 0.0 1.7 0.00 0.00 0.00 98 1018.2
20260906090016 65 34 0.9 1.7 0.00 0.00 0.00 98 1018.2
20260906085019 65 46 0.9 1.7 0.00 0.00 0.00 98 1018.2
20260906084020 65 50 0.9 1.7 0.00 0.00 0.00 97 1018.2
20260906083020 65 50 0.0 1.7 0.00 0.00 0.00 97 1018.2
20260906082017 65 54 0.0 0.9 0.00 0.00 0.00 97 1018.2
20260906081037 65 59 0.0 0.9 0.00 0.00 0.00 97 1018.1
20260906080017 65 37 0.0 0.9 0.00 0.00 0.00 97 1018.1
20260906075017 65 37 0.0 0.9 0.00 0.00 0.00 97 1018.1
20260906074040 66 63 0.0 0.9 0.00 0.00 0.00 97 1018.1
20260906073020 66 45 0.0 0.9 0.00 0.00 0.00 97 1018.3
20260906072018 66 8 0.0 0.0 0.00 0.00 0.00 97 1018.1
20260906071018 66 31 0.0 0.9 0.00 0.00 0.00 97 1018.2
20260906070018 67 16 0.0 0.9 0.00 0.00 0.00 97 1018.2
20260906065038 67 17 0.0 0.9 0.00 0.00 0.00 96 1018.3
20260906064018 67 14 0.0 0.9 0.00 0.00 0.00 96 1018.2
20260906063018 67 1 0.0 0.9 0.00 0.00 0.00 96 1018.1
20260906062018 67 358 0.0 0.9 0.00 0.00 0.00 96 1018.2
20260906061015 67 19 0.0 0.9 0.00 0.00 0.00 96 1018.2
20260906060018 68 29 0.0 0.0 0.00 0.00 0.00 95 1018.2
20260906055039 68 49 0.0 1.7 0.00 0.00 0.00 95 1018.2
20260906054019 68 299 0.0 0.9 0.00 0.00 0.00 95 1018.2
20260906053019 69 322 0.0 0.9 0.00 0.00 0.00 94 1018.1
20260906052019 69 325 0.0 0.9 0.00 0.00 0.00 94 1017.9
20260906051019 69 328 0.0 0.9 0.00 0.00 0.00 93 1017.9
20260906050056 70 32 0.0 1.7 0.00 0.00 0.00 93 1017.8
20260906045019 70 36 0.0 1.7 0.00 0.00 0.00 93 1017.6
20260906044019 70 354 0.0 1.7 0.00 0.00 0.00 93 1017.6
20260906043020 70 350 0.9 1.7 0.00 0.00 0.00 93 1017.6
20260906042017 70 20 0.9 2.6 0.00 0.00 0.00 93 1017.5
20260906041017 70 18 0.0 1.7 0.00 0.00 0.00 93 1017.3
20260906040017 70 350 0.9 1.7 0.00 0.00 0.00 93 1017.3
20260906035038 70 9 0.9 2.6 0.00 0.00 0.00 93 1017.3
20260906034020 70 343 0.9 1.7 0.00 0.00 0.00 93 1017.3
20260906033038 70 346 0.9 1.7 0.00 0.00 0.00 93 1017.2
20260906032038 70 14 0.9 3.5 0.00 0.00 0.00 93 1017.2
20260906031017 70 324 0.0 1.7 0.00 0.01 0.00 92 1017.2
20260906030018 70 303 0.0 1.7 0.00 0.01 0.00 91 1017.2
20260906025018 70 324 0.9 2.6 0.00 0.01 0.00 91 1017.2
20260906024018 70 351 0.9 4.3 0.00 0.01 0.00 90 1017.2
20260906023018 71 344 0.9 3.5 0.00 0.01 0.00 90 1017.0
20260906022015 71 326 0.9 1.7 0.00 0.01 0.00 89 1017.1
20260906021015 71 331 0.9 2.6 0.00 0.01 0.00 89 1017.2
20260906020019 71 12 0.9 3.5 0.00 0.01 0.00 89 1017.1
20260906015019 71 2 0.9 2.6 0.00 0.01 0.00 89 1017.3
20260906014019 71 4 0.9 2.6 0.00 0.01 0.00 89 1017.2
20260906013019 71 13 0.9 2.6 0.00 0.01 0.00 89 1017.2
20260906012016 71 23 0.9 3.5 0.00 0.01 0.00 89 1017.1
20260906011017 71 31 1.7 4.3 0.00 0.01 0.00 89 1017.1
20260906010020 72 1 0.9 3.5 0.00 0.01 0.00 89 1017.1
20260906005020 72 11 1.7 4.3 0.00 0.01 0.00 89 1016.9
20260906004020 72 353 1.7 4.3 0.00 0.01 0.00 89 1016.8
20260906003037 72 2 1.7 4.3 0.00 0.01 0.00 89 1016.7
20260906002017 72 359 1.7 4.3 0.00 0.01 0.00 88 1016.7
20260906001017 72 348 0.9 4.3 0.00 0.01 0.00 87 1016.6
20260906000018 72 18 1.7 4.3 0.00 0.01 0.00 87 1016.6
20260905235040 72 9 1.7 3.5 0.00 0.01 0.00 87 1016.7
20260905234018 72 16 1.7 4.3 0.00 0.01 0.00 88 1016.7
20260905233038 72 7 0.9 4.3 0.00 0.01 0.00 87 1016.8
20260905232018 72 6 0.9 2.6 0.00 0.01 0.00 87 1016.6
20260905231018 73 2 1.7 5.2 0.00 0.01 0.00 87 1016.6
20260905230018 73 28 1.7 5.2 0.00 0.01 0.00 86 1016.6
20260905225018 74 7 1.7 4.3 0.00 0.01 0.00 85 1016.5
20260905224019 74 356 1.7 5.2 0.00 0.01 0.00 84 1016.4
20260905223038 75 360 1.7 4.3 0.00 0.01 0.00 84 1016.4
20260905222015 76 8 1.7 4.3 0.00 0.01 0.00 82 1016.4
20260905221016 76 8 1.7 4.3 0.00 0.01 0.00 81 1016.3
20260905220019 77 354 1.7 5.2 0.00 0.01 0.00 80 1016.2
20260905215019 78 1 1.7 4.3 0.00 0.01 0.00 79 1016.1
20260905214019 78 351 0.9 2.6 0.00 0.01 0.00 78 1015.9
20260905213019 79 21 1.7 5.2 0.00 0.01 0.00 77 1015.8
20260905212017 79 7 1.7 3.5 0.00 0.01 0.00 77 1015.6
20260905211017 79 25 1.7 6.1 0.00 0.01 0.00 78 1015.7
20260905210020 80 25 1.7 3.5 0.00 0.01 0.00 78 1015.6
20260905205040 80 356 1.7 5.2 0.00 0.01 0.00 79 1015.6
20260905204020 81 30 1.7 4.3 0.00 0.01 0.00 77 1015.6
20260905203017 81 51 1.7 3.5 0.00 0.01 0.00 77 1015.4
20260905202017 82 15 1.7 4.3 0.00 0.01 0.00 72 1015.5
20260905201017 81 13 1.7 5.2 0.00 0.01 0.00 73 1015.5
20260905200018 81 13 2.6 6.1 0.00 0.01 0.00 74 1015.6
20260905195020 81 31 1.7 3.5 0.00 0.01 0.00 74 1015.7
20260905194018 80 3 1.7 3.5 0.00 0.01 0.00 74 1015.9
20260905193018 79 28 1.7 3.5 0.00 0.01 0.00 78 1016.0
20260905192018 79 18 1.7 3.5 0.00 0.01 0.00 79 1015.9
20260905191018 78 28 1.7 3.5 0.00 0.01 0.00 80 1016.0
20260905190018 78 29 1.7 3.5 0.00 0.01 0.00 81 1016.1
20260905185018 76 21 1.7 4.3 0.00 0.01 0.00 84 1016.2
20260905184019 76 29 1.7 4.3 0.00 0.01 0.00 85 1016.4
20260905183016 76 359 1.7 5.2 0.00 0.01 0.00 85 1016.4
20260905182016 76 7 0.9 2.6 0.00 0.01 0.00 85 1016.3
20260905181016 77 8 1.7 5.2 0.00 0.01 0.00 84 1016.4
20260905180019 77 10 1.7 4.3 0.00 0.01 0.00 84 1016.2
20260905175019 77 24 1.7 3.5 0.00 0.01 0.00 84 1016.1
20260905174019 77 26 1.7 5.2 0.00 0.01 0.00 84 1016.0
20260905173037 76 25 0.9 3.5 0.00 0.01 0.00 84 1016.2
20260905172017 76 14 1.7 4.3 0.00 0.01 0.00 85 1016.2
20260905171109 75 5 0.9 2.6 0.00 0.02 0.00 86 1016.3
20260905170023 75 4 1.7 5.2 0.00 0.04 0.00 86 1016.4
20260905165029 75 338 1.7 3.5 0.00 0.13 0.00 87 1016.5
20260905164029 75 20 0.9 0.9 0.00 0.20 0.00 87 1016.5
20260905163029 75 27 1.7 4.3 0.00 0.20 0.00 87 1016.4
20260905162029 75 40 1.7 3.5 0.00 0.20 0.00 87 1016.4
20260905161030 75 12 0.9 2.6 0.00 0.20 0.00 87 1016.4
20260905160017 75 12 1.7 6.1 0.00 0.20 0.00 86 1016.3
20260905155029 76 355 1.7 3.5 0.00 0.20 0.00 86 1016.2
20260905154030 76 27 1.7 3.5 0.00 0.20 0.00 87 1016.2
20260905153018 76 354 1.7 4.3 0.00 0.20 0.00 87 1016.1
20260905152030 75 19 0.9 2.6 0.00 0.20 0.00 88 1015.9
20260905151030 75 5 1.7 2.6 0.00 0.20 0.00 89 1015.8
20260905150030 75 24 1.7 2.6 0.00 0.20 0.00 89 1015.8
20260905145030 75 31 0.9 3.5 0.00 0.20 0.00 88 1015.8
20260905144016 76 18 0.9 1.7 0.00 0.20 0.00 88 1015.7
20260905143036 76 358 0.9 1.7 0.00 0.20 0.00 88 1015.6
20260905142016 76 26 0.9 2.6 0.00 0.20 0.00 88 1015.6
20260905141016 75 28 0.9 1.7 0.00 0.20 0.00 90 1015.5
20260905140016 74 19 0.9 3.5 0.00 0.20 0.00 93 1015.5
20260905135016 74 0 0.9 1.7 0.00 0.20 0.00 94 1015.5
20260905134051 74 1 0.9 2.6 0.00 0.20 0.00 94 1015.4
20260905133031 74 14 0.9 2.6 0.00 0.20 0.00 95 1015.6
20260905132032 73 12 0.9 1.7 0.00 0.20 0.00 96 1015.8
20260905131032 73 341 0.9 1.7 0.00 0.20 0.00 96 1015.4
20260905130032 73 15 0.9 2.6 0.00 0.20 0.00 97 1015.2
20260905125032 73 20 0.9 1.7 0.00 0.20 0.00 97 1015.2